Lone Rock, WI

5:49 AM CDT on October 21, 2017 (GMT -0500)
Tri-County Regional

Weather History for KLNR - December, 2013

Change the Weather History Date:

Saturday, December 28, 2013

  Actual Average Record
Temperature  
Mean Temperature 28 °F -  
Max Temperature 43 °F 27 °F 48 °F (2003)
Min Temperature 14 °F 12 °F -24 °F (2000)
Degree Days  
Heating Degree Days 36    
Moisture  
Dew Point 18 °F    
Average Humidity 84    
Maximum Humidity 96    
Minimum Humidity 60    
Precipitation  
Precipitation 0.00 in - - ()
Sea Level Pressure  
Sea Level Pressure 29.95 in    
Wind  
Wind Speed 3 mph (ESE)    
Max Wind Speed 12 mph    
Max Gust Speed 18 mph    
Visibility 4 miles    
Events Fog    
Averages and records for this station are not official NWS values.
T = Trace of Precipitation, MM = Missing Value Source: NWS Daily Summary

Daily Weather History Graph

Daily Weather History Graph

Search for Another Location

Airport or City:

Trip Planner

Search our weather history database for the weather conditions in past years. The results will help you decide how hot, cold, wet, or windy it might be!

Date:

Astronomy

Dec. 28, 2013 Rise Set
Actual Time 7:32 AM CST 4:32 PM CST
Civil Twilight 6:59 AM CST 5:05 PM CST
Nautical Twilight 6:23 AM CST 5:41 PM CST
Astronomical Twilight 5:49 AM CST 6:15 PM CST
Moon 3:05 AM CST (12/28) 1:27 PM CST (12/28)
Length of Visible Light 10h 05m
Length of Day
9h 00m
Waning Crescent, 19% of the Moon is Illuminated
Dec 28
Waning Crescent
Jan 1
New
Jan 7
First Quarter
Jan 15
Full
Jan 23
Last Quarter

Hourly Weather History & Observations

Time (CST) Temp. Windchill Dew Point Humidity Pressure Visibility Wind Dir Wind Speed Gust Speed Precip Events Conditions
12:44 AM 21.0 °F - 19.9 °F 96% 30.03 in 1.5 mi Calm Calm - N/A   Clear
12:56 AM 24.1 °F 19.7 °F 21.9 °F 91% 30.05 in 0.8 mi SSW 3.5 mph - N/A   Clear
1:19 AM 16.0 °F - 12.9 °F 88% 30.03 in 2.5 mi Calm Calm - N/A   Clear
1:26 AM 18.0 °F - 16.0 °F 92% 30.02 in 4.0 mi Calm Calm - N/A   Clear
1:37 AM 18.0 °F 12.7 °F 16.0 °F 92% 30.02 in 2.0 mi NE 3.5 mph - N/A   Clear
1:51 AM 17.6 °F - 14.0 °F 86% 30.02 in 1.0 mi Calm Calm - N/A   Clear
1:56 AM 17.1 °F - 15.1 °F 92% 30.04 in 1.2 mi Calm Calm - N/A   Clear
2:05 AM 19.0 °F 13.9 °F 17.1 °F 92% 30.02 in 2.5 mi SE 3.5 mph - N/A   Clear
2:15 AM 17.1 °F - 15.1 °F 92% 30.02 in 1.0 mi Calm Calm - N/A   Mist
2:22 AM 15.1 °F - 12.9 °F 91% 30.02 in 0.5 mi Calm Calm - N/A Fog Light Freezing Fog
2:32 AM 16.0 °F 8.8 °F 14.0 °F 92% 30.02 in 0.2 mi NNE 4.6 mph - N/A Fog Light Freezing Fog
2:56 AM 21.9 °F - 19.9 °F 92% 30.04 in 0.2 mi Calm Calm - N/A Fog Light Freezing Fog
3:56 AM 16.0 °F - 12.9 °F 88% 30.04 in 0.2 mi Calm Calm - N/A Fog Light Freezing Fog
4:41 AM 15.1 °F 9.4 °F 12.9 °F 91% 30.00 in 0.8 mi ENE 3.5 mph - N/A   Mist
4:52 AM 17.6 °F 10.7 °F 15.8 °F 93% 30.00 in - ESE 4.6 mph - N/A   Partly Cloudy
4:56 AM 17.1 °F 11.7 °F 14.0 °F 88% 30.02 in - East 3.5 mph - N/A   Partly Cloudy
5:12 AM 16.0 °F - 12.9 °F 88% 30.00 in 0.2 mi Calm Calm - N/A Fog Light Freezing Fog
5:21 AM 15.1 °F 9.4 °F 12.0 °F 88% 30.00 in 0.2 mi NNE 3.5 mph - N/A Fog Light Freezing Fog
5:32 AM 16.0 °F 8.8 °F 14.0 °F 92% 29.99 in - NE 4.6 mph - N/A   Mostly Cloudy
5:45 AM 15.1 °F 9.4 °F 12.0 °F 88% 29.99 in - ENE 3.5 mph - N/A   Scattered Clouds
5:56 AM 17.1 °F 10.0 °F 14.0 °F 88% 30.01 in - East 4.6 mph - N/A   Clear
6:03 AM 16.0 °F 10.4 °F 12.9 °F 88% 29.99 in - SE 3.5 mph - N/A   Scattered Clouds
6:29 AM 14.0 °F - 10.9 °F 88% 30.00 in - Calm Calm - N/A   Mostly Cloudy
6:42 AM 16.0 °F 10.4 °F 12.9 °F 88% 30.00 in - NE 3.5 mph - N/A   Overcast
6:56 AM 18.0 °F 11.1 °F 16.0 °F 92% 30.01 in - NE 4.6 mph - N/A   Overcast
7:06 AM 16.0 °F 10.4 °F 14.0 °F 92% 30.00 in 0.2 mi ENE 3.5 mph - N/A Fog Light Freezing Fog
7:28 AM 16.0 °F 10.4 °F 12.9 °F 88% 29.99 in 0.5 mi ENE 3.5 mph - N/A Fog Light Freezing Fog
7:34 AM 16.0 °F 10.4 °F 12.9 °F 88% 29.99 in 1.0 mi East 3.5 mph - N/A   Clear
7:50 AM 15.8 °F 8.6 °F 12.2 °F 86% 29.98 in 0.8 mi East 4.6 mph - N/A   Mist
7:56 AM 15.1 °F 7.7 °F 12.9 °F 91% 30.00 in 0.2 mi East 4.6 mph - N/A Fog Light Freezing Fog
8:56 AM 17.1 °F 10.0 °F 14.0 °F 88% 29.98 in 0.5 mi East 4.6 mph - N/A Fog Light Freezing Fog
9:09 AM 17.1 °F 11.7 °F 15.1 °F 92% 29.97 in 1.2 mi East 3.5 mph - N/A   Scattered Clouds
9:18 AM 18.0 °F 12.7 °F 16.0 °F 92% 29.96 in 2.5 mi East 3.5 mph - N/A   Partly Cloudy
9:26 AM 19.0 °F 13.9 °F 16.0 °F 88% 29.96 in 3.0 mi ENE 3.5 mph - N/A   Partly Cloudy
9:41 AM 21.9 °F 15.7 °F 19.0 °F 89% 29.95 in 2.0 mi ENE 4.6 mph - N/A   Clear
9:56 AM 21.9 °F 17.2 °F 19.9 °F 92% 29.96 in 4.0 mi ENE 3.5 mph - N/A   Clear
10:56 AM 32.0 °F 26.4 °F 27.0 °F 82% 29.94 in 7.0 mi SSW 5.8 mph - N/A   Clear
11:56 AM 39.0 °F 32.8 °F 28.9 °F 67% 29.90 in 9.0 mi SSW 9.2 mph - N/A   Clear
12:56 PM 41.0 °F 35.8 °F 28.9 °F 62% 29.85 in 9.0 mi SW 8.1 mph - N/A   Clear
1:56 PM 42.1 °F 37.7 °F 30.0 °F 62% 29.84 in 9.0 mi SSW 6.9 mph - N/A   Clear
2:56 PM 43.0 °F 38.2 °F 30.0 °F 60% 29.83 in 10.0 mi SSW 8.1 mph - N/A   Clear
3:56 PM 43.0 °F 38.8 °F 30.0 °F 60% 29.83 in 10.0 mi SW 6.9 mph - N/A   Clear
4:56 PM 42.1 °F 36.6 °F 30.0 °F 62% 29.81 in 10.0 mi SSW 9.2 mph - N/A   Clear
5:56 PM 39.0 °F 32.8 °F 28.9 °F 67% 29.79 in 10.0 mi South 9.2 mph - N/A   Clear
6:56 PM 42.1 °F 35.7 °F 30.0 °F 62% 29.78 in 10.0 mi SW 11.5 mph 18.4 mph N/A   Clear
7:56 PM 39.0 °F 35.7 °F 28.9 °F 67% 29.80 in 10.0 mi WSW 4.6 mph - N/A   Clear
8:56 PM 39.0 °F 34.8 °F 28.9 °F 67% 29.78 in 10.0 mi SW 5.8 mph - N/A   Clear
9:56 PM 26.1 °F - 21.9 °F 84% 29.78 in 10.0 mi Calm Calm - N/A   Clear
10:56 PM 26.1 °F - 23.0 °F 88% 29.76 in 10.0 mi Calm Calm - N/A   Clear
11:56 PM 30.9 °F 25.2 °F 25.0 °F 79% 29.75 in 10.0 mi WNW 5.8 mph - N/A   Clear